WV8BRW Weather Reports


Display with metric or nautical units.
time (UTC)temp
F
wind
direction
speed
MPH
gust
MPH
rain 1hr
in
rain 24hr
in
rain mn
in
humidity
%
barometer
mb
20260906112234 70 334 2.0 3.0 0.00 0.00 0.00 99 1012.4
20260906111733 70 346 0.0 0.0 0.00 0.00 0.00 99 1012.2
20260906111227 70 345 0.0 1.0 0.00 0.00 0.00 99 1012.4
20260906110722 70 346 1.0 1.0 0.00 0.00 0.00 99 1012.2
20260906110219 70 337 0.0 0.0 0.00 0.00 0.00 99 1012.0
20260906105717 70 326 0.0 0.0 0.00 0.00 0.00 99 1011.8
20260906105214 71 324 0.0 1.0 0.00 0.00 0.00 99 1011.7
20260906104713 70 356 1.0 1.0 0.00 0.00 0.00 99 1011.7
20260906104212 70 335 1.0 1.0 0.00 0.00 0.00 99 1011.6
20260906103710 71 342 2.0 2.0 0.00 0.00 0.00 99 1011.6
20260906103205 71 326 0.0 0.0 0.00 0.00 0.00 99 1011.6
20260906102701 71 3 1.0 1.0 0.00 0.00 0.00 99 1011.4
20260906102200 71 333 0.0 0.0 0.00 0.00 0.00 99 1011.5
20260906101654 70 339 2.0 2.0 0.00 0.00 0.00 99 1011.4
20260906101149 71 345 2.0 2.0 0.00 0.00 0.00 99 1011.2
20260906100644 71 340 2.0 2.0 0.00 0.00 0.00 99 1011.4
20260906100139 71 356 3.0 3.0 0.00 0.00 0.00 99 1011.4
20260906095634 71 352 0.0 1.0 0.00 0.00 0.00 99 1011.0
20260906095130 71 327 0.0 0.0 0.00 0.00 0.00 99 1011.2
20260906094628 71 329 0.0 0.0 0.00 0.00 0.00 99 1011.2
20260906094125 71 343 1.0 1.0 0.00 0.00 0.00 99 1011.4
20260906093620 71 326 0.0 0.0 0.00 0.00 0.00 99 1011.3
20260906093114 71 320 0.0 0.0 0.00 0.00 0.00 99 1011.2
20260906092609 71 320 0.0 0.0 0.00 0.00 0.00 99 1011.3
20260906092105 71 316 0.0 0.0 0.00 0.00 0.00 99 1011.1
20260906091600 71 333 0.0 0.0 0.00 0.00 0.00 99 1011.0
20260906091056 71 332 0.0 0.0 0.00 0.00 0.00 99 1011.4
20260906090551 71 311 0.0 0.0 0.00 0.00 0.00 99 1011.4
20260906090046 71 342 2.0 2.0 0.00 0.00 0.00 99 1011.2
20260906085545 71 323 1.0 2.0 0.00 0.00 0.00 99 1011.5
20260906085044 71 342 1.0 2.0 0.00 0.00 0.00 99 1011.1
20260906084539 71 340 2.0 2.0 0.00 0.00 0.00 99 1011.4
20260906084038 71 328 0.0 0.0 0.00 0.00 0.00 99 1011.3
20260906083534 71 321 0.0 0.0 0.00 0.00 0.00 99 1011.3
20260906083033 71 333 0.0 0.0 0.00 0.00 0.00 99 1011.4
20260906082528 71 331 0.0 0.0 0.00 0.00 0.00 99 1011.5
20260906082025 71 331 0.0 0.0 0.00 0.00 0.00 99 1011.3
20260906081520 71 321 1.0 2.0 0.00 0.00 0.00 99 1011.6
20260906081016 71 327 2.0 2.0 0.00 0.00 0.00 99 1011.5
20260906080512 71 326 1.0 1.0 0.00 0.00 0.00 99 1011.6
20260906080008 71 346 2.0 2.0 0.00 0.00 0.00 99 1011.5
20260906075502 71 337 1.0 2.0 0.00 0.00 0.00 99 1011.4
20260906074956 71 332 0.0 0.0 0.00 0.00 0.00 99 1011.5
20260906074451 71 329 0.0 0.0 0.00 0.00 0.00 99 1011.5
20260906073949 71 329 0.0 0.0 0.00 0.00 0.00 99 1011.5
20260906073444 71 326 0.0 0.0 0.00 0.00 0.00 99 1011.2
20260906072941 71 327 0.0 0.0 0.00 0.00 0.00 99 1011.4
20260906072436 71 334 0.0 0.0 0.00 0.00 0.00 99 1011.3
20260906071932 71 328 0.0 0.0 0.00 0.00 0.00 99 1011.1
20260906071427 71 331 0.0 0.0 0.00 0.00 0.00 99 1011.0
20260906070924 71 340 0.0 1.0 0.00 0.00 0.00 99 1011.0
20260906070419 71 325 0.0 0.0 0.00 0.00 0.00 99 1011.0
20260906065915 71 325 0.0 0.0 0.00 0.00 0.00 99 1010.9
20260906065409 71 329 0.0 0.0 0.00 0.00 0.00 99 1010.7
20260906064904 71 327 0.0 0.0 0.00 0.00 0.00 99 1011.0
20260906064355 71 326 0.0 0.0 0.00 0.00 0.00 99 1011.0
20260906063855 71 325 0.0 0.0 0.00 0.00 0.00 99 1011.3
20260906063350 71 316 0.0 0.0 0.00 0.00 0.00 99 1011.1
20260906062845 71 328 0.0 0.0 0.00 0.00 0.00 99 1011.6
20260906062344 72 323 0.0 0.0 0.00 0.00 0.00 99 1011.3
20260906061840 72 325 0.0 0.0 0.00 0.00 0.00 99 1011.5
20260906061336 72 326 0.0 0.0 0.00 0.00 0.00 99 1011.6
20260906060831 72 332 0.0 0.0 0.00 0.00 0.00 99 1011.5
20260906060329 72 320 1.0 2.0 0.00 0.00 0.00 99 1011.7
20260906055824 72 327 0.0 0.0 0.00 0.00 0.00 99 1011.6
20260906055320 72 330 0.0 0.0 0.00 0.00 0.00 99 1011.6
20260906054815 72 337 1.0 1.0 0.00 0.00 0.00 99 1011.4
20260906054310 72 326 1.0 1.0 0.00 0.00 0.00 99 1011.5
20260906053807 72 336 1.0 1.0 0.00 0.00 0.00 99 1011.2
20260906053302 72 323 0.0 0.0 0.00 0.00 0.00 99 1011.3
20260906052756 72 322 0.0 0.0 0.00 0.00 0.00 99 1011.3
20260906052253 72 322 0.0 0.0 0.00 0.00 0.00 99 1011.4
20260906051750 72 328 0.0 0.0 0.00 0.00 0.00 99 1011.3
20260906051249 73 329 0.0 0.0 0.00 0.00 0.00 99 1011.5
20260906050745 72 335 0.0 0.0 0.00 0.00 0.00 99 1011.5
20260906050240 73 333 0.0 0.0 0.00 0.00 0.00 99 1011.7
20260906045738 73 324 0.0 0.0 0.00 0.00 0.00 99 1011.2
20260906045233 73 324 0.0 0.0 0.00 0.00 0.00 99 1011.3
20260906044728 73 325 0.0 0.0 0.00 0.00 0.00 99 1011.0
20260906044224 73 329 0.0 0.0 0.00 0.00 0.00 99 1011.1
20260906043720 73 329 0.0 1.0 0.00 0.00 0.00 99 1011.1
20260906043216 73 334 0.0 0.0 0.00 0.00 0.00 99 1011.0
20260906042715 73 333 0.0 0.0 0.00 0.00 0.00 99 1011.0
20260906042209 73 326 1.0 1.0 0.00 0.00 0.00 99 1011.0
20260906041704 73 327 0.0 0.0 0.00 0.00 0.00 99 1011.0
20260906041159 73 333 0.0 0.0 0.00 0.00 0.00 99 1010.9
20260906040655 73 324 0.0 0.0 0.00 0.00 0.00 99 1010.7
20260906040150 73 324 0.0 0.0 0.00 0.00 0.00 99 1011.0
20260906035645 73 321 0.0 0.0 0.00 0.07 0.07 99 1011.0
20260906035141 73 321 0.0 0.0 0.00 0.07 0.07 99 1011.0
20260906034635 73 321 0.0 0.0 0.00 0.07 0.07 99 1010.9
20260906034130 73 324 0.0 0.0 0.00 0.07 0.07 99 1011.2
20260906033625 73 323 0.0 0.0 0.00 0.07 0.07 99 1011.1
20260906033120 73 323 0.0 0.0 0.00 0.07 0.07 99 1010.8
20260906032617 73 331 0.0 0.0 0.00 0.07 0.07 99 1010.7
20260906032116 73 332 0.0 0.0 0.00 0.07 0.07 99 1010.8
20260906031612 73 340 0.0 0.0 0.00 0.07 0.07 99 1011.2
20260906031108 73 330 0.0 0.0 0.00 0.07 0.07 99 1011.4
20260906030606 73 335 1.0 1.0 0.00 0.07 0.07 99 1011.1
20260906030101 73 327 0.0 0.0 0.00 0.07 0.07 99 1011.4
20260906025556 74 331 0.0 0.0 0.00 0.07 0.07 99 1011.5
20260906025054 73 324 0.0 0.0 0.00 0.07 0.07 99 1011.5
20260906024550 74 331 0.0 1.0 0.00 0.07 0.07 99 1011.4
20260906024049 73 342 1.0 1.0 0.00 0.07 0.07 99 1011.6
20260906023546 73 340 1.0 1.0 0.00 0.07 0.07 99 1011.7
20260906023040 73 329 1.0 1.0 0.00 0.07 0.07 99 1011.7
20260906022535 73 352 1.0 2.0 0.00 0.07 0.07 99 1011.4
20260906022031 73 332 0.0 0.0 0.00 0.07 0.07 99 1011.6
20260906021526 73 331 0.0 0.0 0.00 0.07 0.07 99 1011.4
20260906021020 74 326 0.0 0.0 0.00 0.07 0.07 99 1011.3
20260906020519 74 322 0.0 0.0 0.00 0.07 0.07 99 1011.4
20260906020019 74 330 0.0 0.0 0.00 0.07 0.07 99 1011.4
20260906015518 74 321 0.0 0.0 0.00 0.07 0.07 99 1011.2
20260906015018 74 328 0.0 0.0 0.00 0.07 0.07 99 1011.4
20260906014513 74 329 0.0 0.0 0.00 0.07 0.07 99 1011.0
20260906014009 74 337 0.0 0.0 0.00 0.07 0.07 99 1011.0
20260906013504 74 333 0.0 0.0 0.00 0.07 0.07 99 1011.1
20260906013000 74 334 0.0 0.0 0.00 0.07 0.07 99 1011.3
20260906012455 74 340 0.0 0.0 0.00 0.07 0.07 99 1011.1
20260906011954 74 327 0.0 0.0 0.00 0.07 0.07 99 1011.0
20260906011449 74 327 0.0 0.0 0.00 0.07 0.07 99 1010.7
20260906010944 74 327 0.0 0.0 0.00 0.07 0.07 99 1010.6
20260906010440 74 333 0.0 0.0 0.00 0.07 0.07 99 1010.7
20260906005936 75 334 1.0 1.0 0.00 0.07 0.07 99 1010.5
20260906005436 75 340 1.0 1.0 0.00 0.07 0.07 99 1010.6
20260906004934 75 334 0.0 1.0 0.00 0.07 0.07 99 1010.8
20260906004429 75 351 2.0 2.0 0.00 0.07 0.07 99 1010.6
20260906003925 75 349 2.0 2.0 0.00 0.07 0.07 99 1010.3
20260906003419 75 336 1.0 2.0 0.00 0.07 0.07 99 1010.6
20260906002915 75 353 1.0 1.0 0.00 0.07 0.07 99 1010.6
20260906002415 76 333 0.0 0.0 0.00 0.07 0.07 99 1010.4
20260906001915 76 331 0.0 0.0 0.00 0.07 0.07 99 1010.7
20260906001411 76 330 0.0 0.0 0.00 0.07 0.07 99 1010.5
20260906000910 77 333 0.0 0.0 0.00 0.07 0.07 99 1010.6
20260906000406 77 336 0.0 0.0 0.00 0.07 0.07 99 1010.6
20260905235855 77 342 1.0 1.0 0.00 0.07 0.07 99 1010.6
20260905235349 77 326 0.0 0.0 0.00 0.07 0.07 99 1010.6
20260905234845 78 335 0.0 1.0 0.00 0.07 0.07 99 1010.6
20260905234340 78 331 0.0 0.0 0.00 0.07 0.07 99 1010.9
20260905233835 78 340 0.0 0.0 0.00 0.07 0.07 98 1011.0
20260905233330 79 330 0.0 0.0 0.00 0.07 0.07 97 1010.9
20260905232829 79 334 0.0 0.0 0.00 0.07 0.07 97 1011.0
20260905232325 79 333 0.0 0.0 0.00 0.07 0.07 96 1010.8
20260905231821 79 327 0.0 0.0 0.00 0.07 0.07 95 1010.7
20260905231316 80 317 0.0 0.0 0.00 0.07 0.07 95 1010.8
20260905230812 80 322 0.0 0.0 0.00 0.07 0.07 95 1010.6
20260905230310 80 336 0.0 0.0 0.00 0.07 0.07 95 1010.7
20260905225809 80 314 0.0 0.0 0.00 0.07 0.07 94 1010.8
20260905225306 80 316 0.0 0.0 0.00 0.07 0.07 93 1010.8
20260905224804 80 316 0.0 0.0 0.00 0.07 0.07 93 1010.9
20260905224300 81 317 0.0 0.0 0.00 0.07 0.07 93 1010.8
20260905223755 81 321 0.0 0.0 0.00 0.07 0.07 91 1010.7
20260905223252 81 327 0.0 0.0 0.00 0.07 0.07 91 1010.9
20260905222747 81 339 0.0 0.0 0.00 0.07 0.07 91 1010.7
20260905222246 81 342 1.0 1.0 0.00 0.07 0.07 91 1010.7
20260905221742 81 337 0.0 0.0 0.00 0.07 0.07 92 1010.5
20260905221239 81 341 0.0 1.0 0.00 0.07 0.07 91 1010.8
20260905220734 81 340 1.0 1.0 0.00 0.07 0.07 89 1010.5
20260905220231 82 327 0.0 0.0 0.00 0.07 0.07 89 1010.8
20260905215730 82 316 0.0 0.0 0.00 0.07 0.07 88 1010.5
20260905215226 83 320 0.0 0.0 0.00 0.07 0.07 84 1010.6
20260905214721 84 319 0.0 0.0 0.00 0.07 0.07 83 1010.6
20260905214217 84 324 0.0 0.0 0.00 0.07 0.07 82 1010.6
20260905213712 86 336 0.0 0.0 0.00 0.07 0.07 78 1010.6
20260905213208 86 308 0.0 1.0 0.00 0.07 0.07 74 1010.5
20260905212703 87 331 2.0 2.0 0.00 0.07 0.07 73 1010.5
20260905212202 87 279 0.0 1.0 0.00 0.07 0.07 74 1010.4
20260905211657 87 337 0.0 0.0 0.00 0.07 0.07 75 1010.4
20260905211152 87 298 0.0 1.0 0.00 0.07 0.07 73 1010.5
20260905210649 86 314 0.0 1.0 0.00 0.07 0.07 74 1010.6
20260905210148 86 274 2.0 3.0 0.00 0.07 0.07 74 1010.5
20260905205648 86 224 3.0 3.0 0.00 0.07 0.07 78 1010.4
20260905205147 87 234 3.0 3.0 0.00 0.07 0.07 76 1010.4
20260905204647 86 29 1.0 2.0 0.00 0.07 0.07 77 1010.4
20260905204142 86 287 1.0 1.0 0.00 0.07 0.07 77 1010.2
20260905203637 86 337 0.0 0.0 0.00 0.07 0.07 81 1010.5
20260905203132 85 336 0.0 0.0 0.00 0.07 0.07 80 1010.6
20260905202628 86 336 0.0 0.0 0.00 0.07 0.07 72 1010.6
20260905202123 86 336 0.0 0.0 0.00 0.07 0.07 75 1010.5
20260905201619 83 336 0.0 0.0 0.00 0.07 0.07 80 1010.8
20260905201118 81 342 0.0 0.0 0.00 0.07 0.07 83 1010.6
20260905200614 81 68 2.0 2.0 0.07 0.07 0.07 81 1011.1
20260905200109 82 341 0.0 0.0 0.07 0.07 0.07 82 1011.1
20260905195601 84 342 0.0 0.0 0.00 0.06 0.06 75 1011.2
20260905195057 84 320 1.0 2.0 0.00 0.06 0.06 72 1011.2
20260905194556 86 36 0.0 1.0 0.00 0.06 0.06 71 1010.9
20260905194050 85 283 1.0 1.0 0.00 0.06 0.06 71 1011.2
20260905193545 85 308 1.0 1.0 0.00 0.06 0.06 69 1010.9
20260905193041 85 305 0.0 0.0 0.00 0.06 0.06 71 1011.0
20260905192536 85 344 1.0 2.0 0.00 0.06 0.06 70 1011.1
20260905192033 86 315 0.0 0.0 0.00 0.06 0.06 71 1011.0
20260905191531 86 342 0.0 1.0 0.00 0.06 0.06 67 1011.3
20260905191030 87 332 0.0 1.0 0.00 0.06 0.06 64 1011.3
20260905190528 87 302 0.0 0.0 0.00 0.06 0.06 62 1011.4
20260905190028 87 303 0.0 0.0 0.00 0.06 0.06 64 1011.5
20260905185527 87 6 1.0 1.0 0.00 0.06 0.06 66 1011.5
20260905185026 87 351 0.0 0.0 0.00 0.06 0.06 70 1011.5
20260905184521 87 358 1.0 1.0 0.00 0.06 0.06 69 1011.7
20260905184019 86 318 0.0 0.0 0.00 0.06 0.06 73 1011.7
20260905183514 86 317 0.0 1.0 0.00 0.06 0.06 69 1011.8
20260905183010 86 343 1.0 1.0 0.00 0.06 0.06 69 1011.7
20260905182509 85 318 1.0 2.0 0.00 0.06 0.06 73 1012.0
20260905182003 84 315 0.0 0.0 0.00 0.06 0.06 73 1012.1
20260905181459 84 311 1.0 1.0 0.00 0.06 0.06 76 1012.0
20260905180957 84 336 1.0 2.0 0.00 0.06 0.06 75 1011.9
20260905180452 83 288 5.0 5.0 0.00 0.06 0.06 72 1011.9
20260905175947 83 321 0.0 0.0 0.00 0.06 0.06 74 1011.9
20260905175447 84 327 0.0 1.0 0.00 0.06 0.06 77 1012.0
20260905174943 84 269 3.0 5.0 0.00 0.06 0.06 75 1012.3
20260905174437 84 315 1.0 1.0 0.00 0.06 0.06 75 1011.9
20260905173933 84 326 0.0 1.0 0.00 0.06 0.06 77 1011.9
20260905173430 84 341 0.0 1.0 0.00 0.06 0.06 81 1012.3
20260905172925 83 291 1.0 1.0 0.00 0.06 0.06 80 1012.5
20260905172422 82 317 0.0 1.0 0.00 0.06 0.06 82 1012.3
20260905171919 82 19 3.0 3.0 0.00 0.06 0.06 83 1012.2
20260905171415 81 338 1.0 1.0 0.00 0.06 0.06 83 1012.3
20260905170911 81 322 1.0 2.0 0.00 0.06 0.06 82 1012.4
20260905170407 81 334 0.0 0.0 0.00 0.06 0.06 83 1012.7
20260905165906 81 333 1.0 1.0 0.00 0.06 0.06 87 1012.5
20260905165402 81 336 2.0 2.0 0.00 0.06 0.06 85 1012.3
20260905164856 82 321 0.0 0.0 0.00 0.06 0.06 84 1012.5
20260905164351 82 331 2.0 3.0 0.00 0.06 0.06 87 1012.7
20260905163846 80 303 1.0 2.0 0.00 0.06 0.06 87 1012.8
20260905163337 80 273 4.0 6.0 0.00 0.06 0.06 87 1012.7
20260905162833 80 347 1.0 1.0 0.00 0.06 0.06 89 1012.8
20260905162332 79 345 1.0 1.0 0.00 0.06 0.06 89 1012.6
20260905161827 79 312 1.0 1.0 0.00 0.06 0.06 91 1012.8
20260905161327 79 290 2.0 2.0 0.00 0.06 0.06 89 1012.7
20260905160825 79 327 0.0 0.0 0.00 0.06 0.06 94 1012.8
20260905160320 77 310 1.0 1.0 0.00 0.06 0.06 90 1012.5
20260905155814 77 308 1.0 1.0 0.00 0.06 0.06 95 1012.3
20260905155313 77 286 1.0 2.0 0.00 0.06 0.06 95 1012.3
20260905154807 77 324 0.0 0.0 0.00 0.06 0.06 96 1012.3
20260905154303 77 333 0.0 0.0 0.00 0.06 0.06 96 1012.4
20260905153758 77 334 0.0 0.0 0.00 0.06 0.06 95 1012.0
20260905153254 77 315 0.0 1.0 0.00 0.06 0.06 92 1012.5
20260905152748 76 320 0.0 0.0 0.00 0.06 0.06 95 1012.5
20260905152243 76 339 1.0 1.0 0.00 0.06 0.06 96 1012.9
20260905151742 75 296 2.0 2.0 0.00 0.06 0.06 99 1012.6
20260905151239 75 326 0.0 0.0 0.00 0.06 0.06 99 1012.1
20260905150738 74 326 0.0 0.0 0.00 0.06 0.06 99 1012.2
20260905150238 74 333 0.0 0.0 0.00 0.06 0.06 99 1012.9
20260905145735 74 317 0.0 0.0 0.00 0.06 0.06 99 1013.3
20260905145231 74 327 0.0 0.0 0.00 0.06 0.06 99 1013.1
20260905144729 74 339 0.0 1.0 0.00 0.06 0.06 99 1013.0
20260905144225 75 329 0.0 0.0 0.00 0.06 0.06 99 1012.8
20260905143723 75 329 0.0 0.0 0.00 0.06 0.06 99 1012.7
20260905143218 74 308 0.0 0.0 0.00 0.06 0.06 99 1012.7
20260905142716 73 317 0.0 0.0 0.00 0.06 0.06 99 1013.4
20260905142211 74 301 0.0 0.0 0.00 0.06 0.06 99 1013.7
20260905141706 74 315 0.0 0.0 0.00 0.06 0.06 99 1012.9
20260905141202 74 315 0.0 0.0 0.00 0.06 0.06 99 1013.2
20260905140657 73 330 0.0 0.0 0.00 0.06 0.06 99 1013.2
20260905140151 73 330 0.0 0.0 0.00 0.06 0.06 99 1013.3
20260905135646 73 334 0.0 0.0 0.00 0.06 0.06 99 1013.4
20260905135142 73 316 0.0 0.0 0.00 0.06 0.06 99 1013.7
20260905134636 73 327 0.0 0.0 0.00 0.06 0.06 99 1013.7
20260905134134 73 336 0.0 0.0 0.00 0.06 0.06 99 1013.6
20260905133625 73 339 0.0 0.0 0.00 0.06 0.06 99 1013.6
20260905133125 73 341 0.0 0.0 0.00 0.06 0.06 99 1014.0
20260905132624 73 334 0.0 0.0 0.00 0.06 0.06 99 1014.4
20260905132119 72 332 0.0 0.0 0.00 0.06 0.06 99 1014.0
20260905131614 73 340 0.0 0.0 0.00 0.06 0.06 99 1014.1
20260905131110 72 331 0.0 0.0 0.00 0.06 0.06 99 1014.0
20260905130609 72 327 0.0 0.0 0.00 0.06 0.06 99 1014.1
20260905130104 72 335 0.0 1.0 0.00 0.06 0.06 99 1014.1
20260905125603 72 304 2.0 3.0 0.00 0.06 0.06 99 1014.2
20260905125059 72 316 1.0 1.0 0.05 0.06 0.06 99 1014.2
20260905124555 72 357 1.0 1.0 0.05 0.06 0.06 99 1014.1
20260905124051 72 328 1.0 1.0 0.00 0.05 0.05 99 1013.9
20260905123546 72 359 1.0 2.0 0.00 0.05 0.05 99 1013.9
20260905123043 72 323 0.0 0.0 0.00 0.05 0.05 99 1014.0
20260905122543 72 205 3.0 6.0 0.00 0.05 0.05 99 1013.6
20260905122037 73 347 0.0 0.0 0.00 0.05 0.05 99 1013.7
20260905121532 72 346 3.0 5.0 0.00 0.05 0.05 99 1014.0
20260905121027 73 318 0.0 1.0 0.00 0.05 0.05 99 1013.7
20260905120527 73 354 1.0 1.0 0.00 0.05 0.05 99 1013.8
20260905120022 73 53 2.0 2.0 0.00 0.05 0.05 99 1013.9
20260905115521 73 327 0.0 0.0 0.00 0.05 0.05 99 1012.5
20260905115016 73 326 0.0 0.0 0.00 0.05 0.05 99 1012.4
20260905114515 73 336 0.0 0.0 0.00 0.05 0.05 99 1012.4
20260905114014 73 328 0.0 0.0 0.00 0.05 0.05 99 1012.3
20260905113510 73 39 3.0 3.0 0.00 0.05 0.05 99 1012.4
20260905113005 73 44 3.0 3.0 0.00 0.05 0.05 99 1012.3